Time,TemperatureF,DewpointF,PressureIn,WindDirection,WindDirectionDegrees,WindSpeedMPH,WindSpeedGustMPH,Humidity,HourlyPrecipIn,Conditions,Clouds,dailyrainin,SoftwareType,DateUTC
2013-01-28 00:04:00,26.0,22.0,30.43,West,281,0.0,0.0,86,0.00,,,0.00,,2013-01-28 05:04:00,
2013-01-28 00:12:00,26.0,22.0,30.43,West,281,0.0,0.0,86,0.00,,,0.00,,2013-01-28 05:12:00,
2013-01-28 00:22:00,26.0,22.0,30.43,West,281,0.0,0.0,86,0.00,,,0.00,,2013-01-28 05:22:00,
2013-01-28 00:32:00,26.0,22.0,30.43,West,281,0.0,0.0,86,0.00,,,0.00,,2013-01-28 05:32:00,
2013-01-28 00:42:00,26.0,22.0,30.43,West,281,0.0,0.0,86,0.00,,,0.00,,2013-01-28 05:42:00,
2013-01-28 00:52:00,27.0,23.0,30.41,West,281,1.0,4.0,85,0.00,,,0.00,,2013-01-28 05:52:00,
2013-01-28 01:02:00,27.0,23.0,30.41,West,281,1.0,4.0,85,0.00,,,0.00,,2013-01-28 06:02:00,
2013-01-28 01:11:00,27.0,23.0,30.41,West,281,1.0,4.0,85,0.00,,,0.00,,2013-01-28 06:11:00,
2013-01-28 01:22:00,28.0,23.0,30.40,West,281,0.0,0.0,80,0.00,,,0.00,,2013-01-28 06:22:00,
2013-01-28 01:32:00,28.0,23.0,30.40,West,281,0.0,0.0,80,0.00,,,0.00,,2013-01-28 06:32:00,
2013-01-28 01:42:00,28.0,23.0,30.40,West,281,0.0,0.0,80,0.00,,,0.00,,2013-01-28 06:42:00,
2013-01-28 01:52:00,29.0,23.0,30.40,West,281,0.0,2.0,79,0.00,,,0.00,,2013-01-28 06:52:00,
2013-01-28 02:02:00,29.0,23.0,30.40,West,281,0.0,2.0,79,0.00,,,0.00,,2013-01-28 07:02:00,
2013-01-28 02:11:00,29.0,23.0,30.40,West,281,0.0,2.0,79,0.00,,,0.00,,2013-01-28 07:11:00,
2013-01-28 02:22:00,30.0,24.0,30.40,West,281,1.0,3.0,77,0.00,,,0.00,,2013-01-28 07:22:00,
2013-01-28 02:32:00,30.0,24.0,30.40,West,281,1.0,3.0,77,0.00,,,0.00,,2013-01-28 07:32:00,
2013-01-28 02:42:00,30.0,24.0,30.40,West,281,1.0,3.0,77,0.00,,,0.00,,2013-01-28 07:42:00,
2013-01-28 02:52:00,30.0,23.0,30.38,West,281,2.0,4.0,76,0.00,,,0.00,,2013-01-28 07:52:00,
2013-01-28 03:01:00,30.0,23.0,30.38,West,281,2.0,4.0,76,0.00,,,0.00,,2013-01-28 08:01:00,
2013-01-28 03:11:00,30.0,23.0,30.38,West,281,2.0,4.0,76,0.00,,,0.00,,2013-01-28 08:11:00,
2013-01-28 03:21:00,31.0,24.0,30.37,West,281,0.0,4.0,75,0.00,,,0.00,,2013-01-28 08:21:00,
2013-01-28 03:32:00,31.0,24.0,30.37,West,281,0.0,4.0,75,0.00,,,0.00,,2013-01-28 08:32:00,
2013-01-28 03:42:00,31.0,24.0,30.37,West,281,0.0,4.0,75,0.00,,,0.00,,2013-01-28 08:42:00,
2013-01-28 03:52:00,31.0,24.0,30.35,West,281,2.0,6.0,75,0.00,,,0.00,,2013-01-28 08:52:00,
2013-01-28 04:02:00,31.0,24.0,30.35,West,281,2.0,6.0,75,0.00,,,0.00,,2013-01-28 09:02:00,
2013-01-28 04:12:00,31.0,24.0,30.35,West,281,2.0,6.0,75,0.00,,,0.00,,2013-01-28 09:12:00,
2013-01-28 04:22:00,31.0,24.0,30.34,West,281,1.0,5.0,75,0.00,,,0.00,,2013-01-28 09:22:00,
2013-01-28 04:32:00,31.0,24.0,30.34,West,281,1.0,5.0,75,0.00,,,0.00,,2013-01-28 09:32:00,
2013-01-28 04:42:00,31.0,24.0,30.34,West,281,1.0,5.0,75,0.00,,,0.00,,2013-01-28 09:42:00,
2013-01-28 04:52:00,32.0,25.0,30.34,West,275,4.0,7.0,75,0.00,,,0.00,,2013-01-28 09:52:00,
2013-01-28 05:02:00,32.0,25.0,30.34,West,275,4.0,7.0,75,0.00,,,0.00,,2013-01-28 10:02:00,
2013-01-28 05:11:00,32.0,25.0,30.34,West,275,4.0,7.0,75,0.00,,,0.00,,2013-01-28 10:11:00,
2013-01-28 05:21:00,31.0,26.0,30.32,SW,231,4.0,7.0,81,0.00,,,0.00,,2013-01-28 10:21:00,
2013-01-28 05:32:00,31.0,26.0,30.32,SW,231,4.0,7.0,81,0.00,,,0.00,,2013-01-28 10:32:00,
2013-01-28 05:42:00,31.0,26.0,30.32,SW,231,4.0,7.0,81,0.00,,,0.00,,2013-01-28 10:42:00,
2013-01-28 05:52:00,31.0,27.0,30.31,South,182,4.0,7.0,85,0.00,,,0.00,,2013-01-28 10:52:00,
2013-01-28 06:02:00,31.0,27.0,30.31,South,182,4.0,7.0,85,0.00,,,0.00,,2013-01-28 11:02:00,
2013-01-28 06:11:00,31.0,27.0,30.31,South,182,4.0,7.0,85,0.00,,,0.00,,2013-01-28 11:11:00,
2013-01-28 06:22:00,31.0,28.0,30.31,South,190,4.0,8.0,88,0.00,,,0.00,,2013-01-28 11:22:00,
2013-01-28 06:32:00,31.0,28.0,30.31,South,190,4.0,8.0,88,0.00,,,0.00,,2013-01-28 11:32:00,
2013-01-28 06:42:00,31.0,28.0,30.31,South,190,4.0,8.0,88,0.00,,,0.00,,2013-01-28 11:42:00,
2013-01-28 06:52:00,31.0,28.0,30.31,SW,215,3.0,9.0,89,0.00,,,0.00,,2013-01-28 11:52:00,
2013-01-28 07:03:00,31.0,28.0,30.31,SW,215,3.0,9.0,89,0.00,,,0.00,,2013-01-28 12:03:00,
2013-01-28 07:12:00,31.0,28.0,30.31,SW,215,3.0,9.0,89,0.00,,,0.00,,2013-01-28 12:12:00,
2013-01-28 07:23:00,31.0,28.0,30.32,SW,217,4.0,8.0,90,0.00,,,0.00,,2013-01-28 12:23:00,
2013-01-28 07:33:00,31.0,28.0,30.32,SW,217,4.0,8.0,90,0.00,,,0.00,,2013-01-28 12:33:00,
2013-01-28 07:42:00,31.0,28.0,30.32,SW,217,4.0,8.0,90,0.00,,,0.00,,2013-01-28 12:42:00,
2013-01-28 07:52:00,31.0,28.0,30.29,SSE,163,5.0,9.0,90,0.00,,,0.00,,2013-01-28 12:52:00,
2013-01-28 08:03:00,31.0,28.0,30.29,SSE,163,5.0,9.0,90,0.00,,,0.00,,2013-01-28 13:03:00,
2013-01-28 08:12:00,31.0,28.0,30.29,SSE,163,5.0,9.0,90,0.00,,,0.00,,2013-01-28 13:12:00,
2013-01-28 08:23:00,31.0,29.0,30.29,South,185,6.0,10.0,91,0.00,,,0.00,,2013-01-28 13:23:00,
2013-01-28 08:33:00,31.0,29.0,30.29,South,185,6.0,10.0,91,0.00,,,0.00,,2013-01-28 13:33:00,
2013-01-28 08:43:00,31.0,29.0,30.29,South,185,6.0,10.0,91,0.00,,,0.00,,2013-01-28 13:43:00,
2013-01-28 08:53:00,32.0,30.0,30.30,South,178,6.0,10.0,91,0.00,,,0.00,,2013-01-28 13:53:00,
2013-01-28 09:03:00,32.0,30.0,30.30,South,178,6.0,10.0,91,0.00,,,0.00,,2013-01-28 14:03:00,
2013-01-28 09:12:00,32.0,30.0,30.30,South,178,6.0,10.0,91,0.00,,,0.00,,2013-01-28 14:12:00,
2013-01-28 09:23:00,32.0,30.0,30.28,South,184,5.0,8.0,92,0.00,,,0.00,,2013-01-28 14:23:00,
2013-01-28 09:33:00,32.0,30.0,30.28,South,184,5.0,8.0,92,0.00,,,0.00,,2013-01-28 14:33:00,
2013-01-28 09:43:00,32.0,30.0,30.28,South,184,5.0,8.0,92,0.00,,,0.00,,2013-01-28 14:43:00,
2013-01-28 09:53:00,32.0,30.0,30.27,SSW,192,5.0,8.0,92,0.00,,,0.00,,2013-01-28 14:53:00,
2013-01-28 10:03:00,32.0,30.0,30.27,SSW,192,5.0,8.0,92,0.00,,,0.00,,2013-01-28 15:03:00,
2013-01-28 10:13:00,32.0,30.0,30.27,SSW,192,5.0,8.0,92,0.00,,,0.00,,2013-01-28 15:13:00,
2013-01-28 10:23:00,32.0,30.0,30.26,SSW,208,5.0,10.0,93,0.00,,,0.00,,2013-01-28 15:23:00,
2013-01-28 10:33:00,32.0,30.0,30.26,SSW,208,5.0,10.0,93,0.00,,,0.00,,2013-01-28 15:33:00,
2013-01-28 10:43:00,32.0,30.0,30.26,SSW,208,5.0,10.0,93,0.00,,,0.00,,2013-01-28 15:43:00,
2013-01-28 10:53:00,32.0,30.0,30.24,SSW,194,6.0,9.0,93,0.00,,,0.00,,2013-01-28 15:53:00,
2013-01-28 11:04:00,32.0,30.0,30.24,SSW,194,6.0,9.0,93,0.00,,,0.00,,2013-01-28 16:04:00,
2013-01-28 11:13:00,32.0,30.0,30.24,SSW,194,6.0,9.0,93,0.00,,,0.00,,2013-01-28 16:13:00,
2013-01-28 11:22:00,33.0,31.0,30.22,SSW,213,4.0,15.0,93,0.00,,,0.00,,2013-01-28 16:22:00,
2013-01-28 11:33:00,33.0,31.0,30.22,SSW,213,4.0,15.0,93,0.00,,,0.00,,2013-01-28 16:33:00,
2013-01-28 11:43:00,33.0,31.0,30.22,SSW,213,4.0,15.0,93,0.00,,,0.00,,2013-01-28 16:43:00,
2013-01-28 11:53:00,33.0,31.0,30.21,SSE,167,3.0,8.0,93,0.00,,,0.00,,2013-01-28 16:53:00,
2013-01-28 12:02:00,33.0,31.0,30.21,SSE,167,3.0,8.0,93,0.00,,,0.00,,2013-01-28 17:02:00,
2013-01-28 12:12:00,33.0,31.0,30.21,SSE,167,3.0,8.0,93,0.00,,,0.00,,2013-01-28 17:12:00,
2013-01-28 12:23:00,33.0,31.0,30.18,SSW,208,7.0,10.0,93,0.00,,,0.00,,2013-01-28 17:23:00,
2013-01-28 12:33:00,33.0,31.0,30.18,SSW,208,7.0,10.0,93,0.00,,,0.00,,2013-01-28 17:33:00,
2013-01-28 12:42:00,33.0,31.0,30.18,SSW,208,7.0,10.0,93,0.00,,,0.00,,2013-01-28 17:42:00,
2013-01-28 12:53:00,33.0,31.0,30.16,SSW,208,6.0,10.0,93,0.12,,,0.12,,2013-01-28 17:53:00,
2013-01-28 13:03:00,33.0,31.0,30.16,SSW,208,6.0,10.0,93,0.12,,,0.12,,2013-01-28 18:03:00,
2013-01-28 13:13:00,33.0,31.0,30.16,SSW,208,6.0,10.0,93,0.12,,,0.12,,2013-01-28 18:13:00,
2013-01-28 13:23:00,33.0,31.0,30.13,SSW,211,5.0,8.0,94,0.12,,,0.12,,2013-01-28 18:23:00,
2013-01-28 13:33:00,33.0,31.0,30.13,SSW,211,5.0,8.0,94,0.12,,,0.12,,2013-01-28 18:33:00,
2013-01-28 13:43:00,33.0,31.0,30.13,SSW,211,5.0,8.0,94,0.12,,,0.12,,2013-01-28 18:43:00,
2013-01-28 13:53:00,34.0,32.0,30.11,SW,214,5.0,9.0,94,0.00,,,0.12,,2013-01-28 18:53:00,
2013-01-28 14:02:00,34.0,32.0,30.11,SW,214,5.0,9.0,94,0.00,,,0.12,,2013-01-28 19:02:00,
2013-01-28 14:12:00,34.0,32.0,30.11,SW,214,5.0,9.0,94,0.00,,,0.12,,2013-01-28 19:12:00,
2013-01-28 14:22:00,34.0,32.0,30.09,SSW,196,4.0,11.0,94,0.00,,,0.12,,2013-01-28 19:22:00,
2013-01-28 14:33:00,34.0,32.0,30.09,SSW,196,4.0,11.0,94,0.00,,,0.12,,2013-01-28 19:33:00,
2013-01-28 14:43:00,34.0,32.0,30.09,SSW,196,4.0,11.0,94,0.00,,,0.12,,2013-01-28 19:43:00,
2013-01-28 14:53:00,35.0,33.0,30.07,SSW,200,7.0,10.0,94,0.01,,,0.13,,2013-01-28 19:53:00,
2013-01-28 15:03:00,35.0,33.0,30.07,SSW,200,7.0,10.0,94,0.01,,,0.13,,2013-01-28 20:03:00,
2013-01-28 15:12:00,35.0,33.0,30.07,SSW,200,7.0,10.0,94,0.01,,,0.13,,2013-01-28 20:12:00,
2013-01-28 15:22:00,35.0,33.0,30.07,SSW,211,5.0,8.0,94,0.01,,,0.13,,2013-01-28 20:22:00,
2013-01-28 15:33:00,35.0,33.0,30.07,SSW,211,5.0,8.0,94,0.01,,,0.13,,2013-01-28 20:33:00,
2013-01-28 15:43:00,35.0,33.0,30.07,SSW,211,5.0,8.0,94,0.01,,,0.13,,2013-01-28 20:43:00,
2013-01-28 15:53:00,35.0,33.0,30.06,SSW,209,3.0,8.0,94,0.01,,,0.14,,2013-01-28 20:53:00,
2013-01-28 16:03:00,35.0,33.0,30.06,SSW,209,3.0,8.0,94,0.01,,,0.14,,2013-01-28 21:03:00,
2013-01-28 16:12:00,35.0,33.0,30.06,SSW,209,3.0,8.0,94,0.01,,,0.14,,2013-01-28 21:12:00,
2013-01-28 16:23:00,36.0,35.0,30.06,SSW,210,6.0,8.0,95,0.01,,,0.14,,2013-01-28 21:23:00,
2013-01-28 16:33:00,36.0,35.0,30.06,SSW,210,6.0,8.0,95,0.01,,,0.14,,2013-01-28 21:33:00,
2013-01-28 16:43:00,36.0,35.0,30.06,SSW,210,6.0,8.0,95,0.01,,,0.14,,2013-01-28 21:43:00,
2013-01-28 16:53:00,36.0,35.0,30.06,SW,219,5.0,9.0,95,0.01,,,0.15,,2013-01-28 21:53:00,
2013-01-28 17:02:00,36.0,35.0,30.06,SW,219,5.0,9.0,95,0.01,,,0.15,,2013-01-28 22:02:00,
2013-01-28 17:12:00,36.0,35.0,30.06,SW,219,5.0,9.0,95,0.01,,,0.15,,2013-01-28 22:12:00,
2013-01-28 17:23:00,36.0,35.0,30.05,SSW,209,3.0,8.0,95,0.01,,,0.15,,2013-01-28 22:23:00,
2013-01-28 17:33:00,36.0,35.0,30.05,SSW,209,3.0,8.0,95,0.01,,,0.15,,2013-01-28 22:33:00,
2013-01-28 17:42:00,36.0,35.0,30.05,SSW,209,3.0,8.0,95,0.01,,,0.15,,2013-01-28 22:42:00,
2013-01-28 17:52:00,36.0,35.0,30.05,SSW,209,2.0,6.0,95,0.00,,,0.15,,2013-01-28 22:52:00,
2013-01-28 18:02:00,36.0,35.0,30.05,SSW,209,2.0,6.0,95,0.00,,,0.15,,2013-01-28 23:02:00,
2013-01-28 18:12:00,36.0,35.0,30.05,SSW,209,2.0,6.0,95,0.00,,,0.15,,2013-01-28 23:12:00,
2013-01-28 18:22:00,36.0,35.0,30.04,SSW,209,1.0,4.0,95,0.00,,,0.15,,2013-01-28 23:22:00,
2013-01-28 18:32:00,36.0,35.0,30.04,SSW,209,1.0,4.0,95,0.00,,,0.15,,2013-01-28 23:32:00,
2013-01-28 18:42:00,36.0,35.0,30.04,SSW,209,1.0,4.0,95,0.00,,,0.15,,2013-01-28 23:42:00,
2013-01-28 18:53:00,36.0,35.0,30.04,SSW,209,4.0,7.0,95,0.00,,,0.15,,2013-01-28 23:53:00,
2013-01-28 19:02:00,36.0,35.0,30.04,SSW,209,4.0,7.0,95,0.00,,,0.15,,2013-01-29 00:02:00,
2013-01-28 19:12:00,36.0,35.0,30.04,SSW,209,4.0,7.0,95,0.00,,,0.15,,2013-01-29 00:12:00,
2013-01-28 19:22:00,36.0,35.0,30.04,SSW,211,1.0,4.0,95,0.00,,,0.15,,2013-01-29 00:22:00,
2013-01-28 19:32:00,36.0,35.0,30.04,SSW,211,1.0,4.0,95,0.00,,,0.15,,2013-01-29 00:32:00,
2013-01-28 19:42:00,36.0,35.0,30.04,SSW,211,1.0,4.0,95,0.00,,,0.15,,2013-01-29 00:42:00,
2013-01-28 19:52:00,36.0,35.0,30.03,SSW,211,0.0,1.0,95,0.00,,,0.15,,2013-01-29 00:52:00,
2013-01-28 20:02:00,36.0,35.0,30.03,SSW,211,0.0,1.0,95,0.00,,,0.15,,2013-01-29 01:02:00,
2013-01-28 20:12:00,36.0,35.0,30.03,SSW,211,0.0,1.0,95,0.00,,,0.15,,2013-01-29 01:12:00,
2013-01-28 20:23:00,35.0,34.0,30.03,SSW,211,0.0,0.0,95,0.00,,,0.15,,2013-01-29 01:23:00,
2013-01-28 20:32:00,35.0,34.0,30.03,SSW,211,0.0,0.0,95,0.00,,,0.15,,2013-01-29 01:32:00,
2013-01-28 20:42:00,35.0,34.0,30.03,SSW,211,0.0,0.0,95,0.00,,,0.15,,2013-01-29 01:42:00,
2013-01-28 20:53:00,35.0,34.0,30.02,SSW,211,0.0,1.0,95,0.00,,,0.15,,2013-01-29 01:53:00,
2013-01-28 21:02:00,35.0,34.0,30.02,SSW,211,0.0,1.0,95,0.00,,,0.15,,2013-01-29 02:02:00,
2013-01-28 21:12:00,35.0,34.0,30.02,SSW,211,0.0,1.0,95,0.00,,,0.15,,2013-01-29 02:12:00,
2013-01-28 21:22:00,36.0,35.0,30.01,SSW,211,0.0,2.0,95,0.00,,,0.15,,2013-01-29 02:22:00,
2013-01-28 21:33:00,36.0,35.0,30.01,SSW,211,0.0,2.0,95,0.00,,,0.15,,2013-01-29 02:33:00,
2013-01-28 21:42:00,36.0,35.0,30.01,SSW,211,0.0,2.0,95,0.00,,,0.15,,2013-01-29 02:42:00,
2013-01-28 21:53:00,36.0,35.0,30.01,SSW,211,1.0,2.0,95,0.00,,,0.15,,2013-01-29 02:53:00,
2013-01-28 22:03:00,36.0,35.0,30.01,SSW,211,1.0,2.0,95,0.00,,,0.15,,2013-01-29 03:03:00,
2013-01-28 22:12:00,36.0,35.0,30.01,SSW,211,1.0,2.0,95,0.00,,,0.15,,2013-01-29 03:12:00,
2013-01-28 22:22:00,36.0,35.0,30.01,SSW,211,1.0,2.0,95,0.00,,,0.15,,2013-01-29 03:22:00,
2013-01-28 22:32:00,36.0,35.0,30.01,SSW,211,1.0,2.0,95,0.00,,,0.15,,2013-01-29 03:32:00,
2013-01-28 22:42:00,36.0,35.0,30.01,SSW,211,1.0,2.0,95,0.00,,,0.15,,2013-01-29 03:42:00,
2013-01-28 22:53:00,37.0,36.0,30.01,SSW,211,0.0,2.0,95,0.00,,,0.15,,2013-01-29 03:53:00,
2013-01-28 23:02:00,37.0,36.0,30.01,SSW,211,0.0,2.0,95,0.00,,,0.15,,2013-01-29 04:02:00,
2013-01-28 23:12:00,37.0,36.0,30.01,SSW,211,0.0,2.0,95,0.00,,,0.15,,2013-01-29 04:12:00,
2013-01-28 23:22:00,37.0,36.0,30.01,SSW,211,0.0,2.0,95,0.00,,,0.15,,2013-01-29 04:22:00,
2013-01-28 23:32:00,37.0,36.0,30.01,SSW,211,0.0,2.0,95,0.00,,,0.15,,2013-01-29 04:32:00,
2013-01-28 23:42:00,37.0,36.0,30.01,SSW,211,0.0,2.0,95,0.00,,,0.15,,2013-01-29 04:42:00,
2013-01-28 23:52:00,37.0,36.0,30.02,SSW,211,0.0,0.0,95,0.00,,,0.15,,2013-01-29 04:52:00,